Powrót do katalogu

SL-14 DEB

AktywnyPO
NORAD 45295·DEBRIS·🇷🇺 Russia

Wystrzelony Aug 15, 1991 z Plesetsk Cosmodrome

Loading…

Następne Przeloty (najbliższe 24 godziny)

TLE

ŚwieżeSource: Space-Track

Epoka: Sep 14, 2026, 07:29 UTC

1 45295U 91056AH  26257.31218609  .00001096  00000-0  19573-2 0  9991
2 45295  82.5709  20.5896 0076131 345.5839  14.3124 13.40029709319680

Śledź SL-14 DEB w czasie rzeczywistym z AllMySat

Download on the App Store